Culiacan, Mexico

10:18 AM MST on December 13, 2017 (GMT -0700)
Culiacan International

Weather History for MMCL - June, 2013

Change the Weather History Date:

Friday, June 21, 2013

  Actual Average Record
Temperature  
Mean Temperature 88 °F -  
Max Temperature 100 °F 95 °F 100 °F (1998)
Min Temperature 77 °F 76 °F 69 °F (2000)
Cooling Degree Days 24    
Growing Degree Days 38 (Base 50)    
Moisture  
Dew Point 67 °F    
Average Humidity 51    
Maximum Humidity 83    
Minimum Humidity 20    
Precipitation  
Precipitation 0.00 in - - ()
Sea Level Pressure  
Sea Level Pressure 29.84 in    
Wind  
Wind Speed 4 mph ()    
Max Wind Speed 16 mph    
Max Gust Speed -    
Visibility 9.3 miles    
Events      
Averages and records for this station are not official NWS values.
T = Trace of Precipitation, MM = Missing Value Source: Averaged Metar Reports

Daily Weather History Graph

Daily Weather History Graph

Search for Another Location

Airport or City:

Trip Planner

Search our weather history database for the weather conditions in past years. The results will help you decide how hot, cold, wet, or windy it might be!

Date:

Astronomy

Jun. 21, 2013 Rise Set
Actual Time 6:21 AM MDT 8:02 PM MDT
Civil Twilight 5:55 AM MDT 8:27 PM MDT
Nautical Twilight 5:24 AM MDT 8:58 PM MDT
Astronomical Twilight 4:52 AM MDT 9:31 PM MDT
Moon 6:22 PM MDT (6/21) 4:31 AM MDT (6/21)
Length of Visible Light 14h 32m
Length of Day
13h 40m
Waxing Gibbous, 95% of the Moon is Illuminated
Jun 21
Waxing Gibbous
Jun 23
Full
Jun 29
Last Quarter
Jul 8
New
Jul 15
First Quarter

Hourly Weather History & Observations

Time (MDT) Temp. Heat Index Dew Point Humidity Pressure Visibility Wind Dir Wind Speed Gust Speed Precip Events Conditions
12:41 AM 80.6 °F 83.2 °F 68.0 °F 65% 29.84 in 10.0 mi Calm Calm - N/A   Clear
1:40 AM 80.6 °F 83.2 °F 68.0 °F 65% 29.84 in 10.0 mi Calm Calm - N/A   Mostly Cloudy
2:41 AM 80.6 °F 83.2 °F 68.0 °F 65% 29.82 in 10.0 mi SSE 8.1 mph - N/A   Mostly Cloudy
2:50 AM 79 °F - 72 °F 75% 29.88 in 6 mi Calm Calm - -  
3:40 AM 80.6 °F 83.2 °F 68.0 °F 65% 29.85 in 10.0 mi SSE 9.2 mph - N/A   Scattered Clouds
4:44 AM 78.8 °F - 68.0 °F 69% 29.87 in 10.0 mi SSE 6.9 mph - N/A   Mostly Cloudy
5:41 AM 78.8 °F - 73.4 °F 83% 29.93 in 10.0 mi Calm Calm - N/A   Mostly Cloudy
5:55 AM 77 °F - 72 °F 81% 29.92 in 6 mi Calm Calm - -  
6:40 AM 80.6 °F 85.4 °F 73.4 °F 79% 29.91 in 8.0 mi SSE 6.9 mph - N/A   Overcast
7:41 AM 80.6 °F 85.4 °F 73.4 °F 79% 29.92 in 8.0 mi SSE 5.8 mph - N/A   Overcast
8:42 AM 84.2 °F 89.6 °F 71.6 °F 66% 29.86 in 8.0 mi SSE 5.8 mph - N/A   Overcast
8:50 AM 84 °F - 75 °F 67% 29.91 in 10 mi SE 2.2 mph - -   Haze
9:40 AM 86.0 °F 93.4 °F 73.4 °F 66% 29.90 in 10.0 mi ESE 5.8 mph - N/A   Scattered Clouds
10:40 AM 91.4 °F 98.4 °F 71.6 °F 52% 29.88 in 10.0 mi East 5.8 mph - N/A   Scattered Clouds
11:40 AM 96.8 °F 107.3 °F 73.4 °F 47% 29.86 in 10.0 mi South 6.9 mph - N/A   Scattered Clouds
11:50 AM 95 °F - 64 °F 26% 29.87 in 10 mi SW 2.2 mph - -   Haze
12:42 PM 98.6 °F 104.1 °F 68.0 °F 37% 29.84 in 10.0 mi SW 5.8 mph - N/A   Partly Cloudy
1:50 PM 100.4 °F 109.3 °F 71.6 °F 39% 29.80 in 10.0 mi West 5.8 mph - N/A   Partly Cloudy
2:40 PM 104.0 °F 116.8 °F 73.4 °F 38% 29.76 in 10.0 mi West 11.5 mph - N/A   Clear
2:50 PM 98 °F - 61 °F 20% 29.81 in 10 mi SW 4.5 mph - -   Haze
3:40 PM 100.4 °F 101.3 °F 60.8 °F 27% 29.77 in 10.0 mi SSW 11.5 mph - N/A   Clear
4:41 PM 100.4 °F 101.3 °F 60.8 °F 27% 29.77 in 10.0 mi WSW 16.1 mph - N/A   Clear
5:40 PM 96.8 °F 96.2 °F 59.0 °F 28% 29.77 in 10.0 mi SW 11.5 mph - N/A   Clear
5:50 PM 91 °F - 61 °F 26% 29.81 in 10 mi SSW 4.5 mph - -   Haze
6:40 PM 91.4 °F 90.7 °F 59.0 °F 34% 29.79 in 10.0 mi SSW 9.2 mph - N/A   Partly Cloudy
7:40 PM 87.8 °F 87.6 °F 60.8 °F 40% 29.80 in 10.0 mi South 5.8 mph - N/A   Scattered Clouds
8:40 PM 86.0 °F 85.4 °F 59.0 °F 40% 29.80 in 10.0 mi Calm Calm - N/A   Mostly Cloudy
8:50 PM 83 °F - 64 °F 44% 29.85 in 6 mi SW 2.2 mph - -  
9:40 PM 82.4 °F 82.0 °F 57.2 °F 42% 29.83 in 10.0 mi Calm Calm - N/A   Mostly Cloudy
11:50 PM 80 °F - 65 °F 50% 29.87 in 6 mi SSE 2.2 mph - -